contact: severine.martini@mio.osupytheas.fr, dominique.lefevre@mio.osupytheas.fr
Project:EMSO Ligure-ouest http://www.emso-fr.org/EMSO-France
Sensor Microcat Sea-Bird SBE37 SMP,  Serial 57510 
DOI : "https://doi.org/10.17882/97948" 
Title:EMSO Ligure Ouest : Data Bathybot capteur Microcat - deploiement 2023-04-28
Datetime,Profondeur,Latitude,Longitude,Temperature,Conductivite,Pression,Salinite
time,m,degree_north,degree_east,degree_C,S/m,db,PSU 
2024-02-01T00:00:49,2420,42.8014,5.9826,13.2979,4.59930,2453.627,38.4890
2024-02-01T00:03:49,2420,42.8014,5.9826,13.2984,4.59934,2453.649,38.4889
2024-02-01T00:06:49,2420,42.8014,5.9826,13.2985,4.59932,2453.627,38.4886
2024-02-01T00:09:49,2420,42.8014,5.9826,13.2986,4.59936,2453.649,38.4888
2024-02-01T00:12:49,2420,42.8014,5.9826,13.2982,4.59928,2453.641,38.4886
2024-02-01T00:15:49,2420,42.8014,5.9826,13.2980,4.59936,2453.627,38.4894
2024-02-01T00:18:49,2420,42.8014,5.9826,13.2982,4.59937,2453.604,38.4893
2024-02-01T00:21:49,2420,42.8014,5.9826,13.2984,4.59928,2453.627,38.4883
2024-02-01T00:24:49,2420,42.8014,5.9826,13.2986,4.59931,2453.627,38.4884
2024-02-01T00:27:49,2420,42.8014,5.9826,13.2985,4.59927,2453.604,38.4881
2024-02-01T00:30:49,2420,42.8014,5.9826,13.2982,4.59931,2453.641,38.4888
2024-02-01T00:33:49,2420,42.8014,5.9826,13.2983,4.59932,2453.627,38.4888
2024-02-01T00:36:49,2420,42.8014,5.9826,13.2985,4.59921,2453.590,38.4875
2024-02-01T00:39:49,2420,42.8014,5.9826,13.2984,4.59924,2453.604,38.4879
2024-02-01T00:42:49,2420,42.8014,5.9826,13.2986,4.59926,2453.582,38.4878
2024-02-01T00:45:49,2420,42.8014,5.9826,13.2985,4.59917,2453.604,38.4872
2024-02-01T00:48:49,2420,42.8014,5.9826,13.2983,4.59925,2453.596,38.4881
2024-02-01T00:51:49,2420,42.8014,5.9826,13.2981,4.59926,2453.604,38.4884
2024-02-01T00:54:49,2420,42.8014,5.9826,13.2985,4.59931,2453.604,38.4885
2024-02-01T00:57:49,2420,42.8014,5.9826,13.2981,4.59932,2453.582,38.4890
2024-02-01T01:00:49,2420,42.8014,5.9826,13.2983,4.59927,2453.604,38.4883
2024-02-01T01:03:49,2420,42.8014,5.9826,13.2985,4.59934,2453.604,38.4887
2024-02-01T01:06:49,2420,42.8014,5.9826,13.2985,4.59928,2453.604,38.4883
2024-02-01T01:09:49,2420,42.8014,5.9826,13.2986,4.59933,2453.604,38.4886
2024-02-01T01:12:49,2420,42.8014,5.9826,13.2983,4.59932,2453.627,38.4888
2024-02-01T01:15:49,2420,42.8014,5.9826,13.2981,4.59931,2453.582,38.4889
2024-02-01T01:18:49,2420,42.8014,5.9826,13.2982,4.59932,2453.590,38.4889
2024-02-01T01:21:49,2420,42.8014,5.9826,13.2982,4.59946,2453.574,38.4903
2024-02-01T01:24:49,2420,42.8014,5.9826,13.2982,4.59929,2453.604,38.4886
2024-02-01T01:27:49,2420,42.8014,5.9826,13.2982,4.59933,2453.604,38.4890
2024-02-01T01:30:49,2420,42.8014,5.9826,13.2983,4.59934,2453.590,38.4890
2024-02-01T01:33:49,2420,42.8014,5.9826,13.2982,4.59934,2453.582,38.4891
2024-02-01T01:36:49,2420,42.8014,5.9826,13.2986,4.59928,2453.627,38.4881
2024-02-01T01:39:49,2420,42.8014,5.9826,13.2979,4.59937,2453.582,38.4896
2024-02-01T01:42:49,2420,42.8014,5.9826,13.2982,4.59929,2453.582,38.4886
2024-02-01T01:45:49,2420,42.8014,5.9826,13.2981,4.59938,2453.604,38.4895
2024-02-01T01:48:50,2420,42.8014,5.9826,13.2980,4.59945,2453.582,38.4903
2024-02-01T01:51:49,2420,42.8014,5.9826,13.2984,4.59958,2453.582,38.4911
2024-02-01T01:54:49,2420,42.8014,5.9826,13.2981,4.59941,2453.604,38.4898
2024-02-01T01:57:49,2420,42.8014,5.9826,13.2982,4.59940,2453.604,38.4896
2024-02-01T02:00:49,2420,42.8014,5.9826,13.2976,4.59939,2453.590,38.4901
2024-02-01T02:03:49,2420,42.8014,5.9826,13.2986,4.59931,2453.582,38.4884
2024-02-01T02:06:49,2420,42.8014,5.9826,13.2979,4.59942,2453.582,38.4900
2024-02-01T02:09:49,2420,42.8014,5.9826,13.2983,4.59932,2453.574,38.4888
2024-02-01T02:12:49,2420,42.8014,5.9826,13.2982,4.59928,2453.559,38.4886
2024-02-01T02:15:49,2420,42.8014,5.9826,13.2978,4.59940,2453.619,38.4900
2024-02-01T02:18:49,2420,42.8014,5.9826,13.2985,4.59937,2453.604,38.4891
2024-02-01T02:21:49,2420,42.8014,5.9826,13.2978,4.59932,2453.559,38.4893
2024-02-01T02:24:49,2420,42.8014,5.9826,13.2982,4.59931,2453.537,38.4888
2024-02-01T02:27:49,2420,42.8014,5.9826,13.2982,4.59937,2453.567,38.4894
2024-02-01T02:30:49,2420,42.8014,5.9826,13.2980,4.59957,2453.559,38.4914
2024-02-01T02:33:49,2420,42.8014,5.9826,13.2983,4.59968,2453.582,38.4922
2024-02-01T02:36:49,2420,42.8014,5.9826,13.2980,4.59953,2453.559,38.4910
2024-02-01T02:39:49,2420,42.8014,5.9826,13.2982,4.59953,2453.582,38.4909
2024-02-01T02:42:49,2420,42.8014,5.9826,13.2986,4.59942,2453.559,38.4895
2024-02-01T02:45:49,2420,42.8014,5.9826,13.2980,4.59957,2453.582,38.4915
2024-02-01T02:48:49,2420,42.8014,5.9826,13.2983,4.59966,2453.537,38.4920
2024-02-01T02:51:49,2420,42.8014,5.9826,13.2985,4.59965,2453.537,38.4918
2024-02-01T02:54:49,2420,42.8014,5.9826,13.2988,4.60028,2453.559,38.4973
2024-02-01T02:57:49,2420,42.8014,5.9826,13.2982,4.59967,2453.582,38.4922
2024-02-01T03:00:49,2420,42.8014,5.9826,13.2982,4.59953,2453.537,38.4909
2024-02-01T03:03:49,2420,42.8014,5.9826,13.2983,4.59988,2453.537,38.4940
2024-02-01T03:06:49,2420,42.8014,5.9826,13.2982,4.59974,2453.582,38.4929
2024-02-01T03:09:49,2420,42.8014,5.9826,13.2985,4.59979,2453.469,38.4931
2024-02-01T03:12:50,2420,42.8014,5.9826,13.2983,4.59988,2453.506,38.4940
2024-02-01T03:15:49,2420,42.8014,5.9826,13.2988,4.59970,2453.499,38.4919
2024-02-01T03:18:49,2420,42.8014,5.9826,13.2991,4.59980,2453.559,38.4925
2024-02-01T03:21:49,2420,42.8014,5.9826,13.2984,4.59945,2453.544,38.4899
2024-02-01T03:24:49,2420,42.8014,5.9826,13.2979,4.59977,2453.582,38.4933
2024-02-01T03:27:49,2420,42.8014,5.9826,13.2988,4.59998,2453.574,38.4945
2024-02-01T03:30:49,2420,42.8014,5.9826,13.2987,4.59965,2453.559,38.4915
2024-02-01T03:33:49,2420,42.8014,5.9826,13.2988,4.59971,2453.537,38.4919
2024-02-01T03:36:49,2420,42.8014,5.9826,13.2987,4.59981,2453.559,38.4930
2024-02-01T03:39:49,2420,42.8014,5.9826,13.2982,4.59976,2453.537,38.4931
2024-02-01T03:42:49,2420,42.8014,5.9826,13.2986,4.59962,2453.559,38.4913
2024-02-01T03:45:49,2420,42.8014,5.9826,13.2987,4.59941,2453.537,38.4892
2024-02-01T03:48:49,2420,42.8014,5.9826,13.2985,4.59946,2453.537,38.4899
2024-02-01T03:51:49,2420,42.8014,5.9826,13.2983,4.59950,2453.559,38.4905
2024-02-01T03:54:49,2420,42.8014,5.9826,13.2981,4.59964,2453.537,38.4920
2024-02-01T03:57:49,2420,42.8014,5.9826,13.2985,4.59968,2453.559,38.4920
2024-02-01T04:00:49,2420,42.8014,5.9826,13.2981,4.59942,2453.559,38.4899
2024-02-01T04:03:49,2420,42.8014,5.9826,13.2985,4.59955,2453.537,38.4908
2024-02-01T04:06:49,2420,42.8014,5.9826,13.2981,4.59962,2453.559,38.4918
2024-02-01T04:09:49,2420,42.8014,5.9826,13.2981,4.59959,2453.559,38.4915
2024-02-01T04:12:49,2420,42.8014,5.9826,13.2980,4.59958,2453.574,38.4915
2024-02-01T04:15:49,2420,42.8014,5.9826,13.2983,4.59951,2453.544,38.4905
2024-02-01T04:18:49,2420,42.8014,5.9826,13.2982,4.59971,2453.559,38.4925
2024-02-01T04:21:50,2420,42.8014,5.9826,13.2982,4.59960,2453.537,38.4916
2024-02-01T04:24:49,2420,42.8014,5.9826,13.2979,4.59979,2453.537,38.4936
2024-02-01T04:27:49,2420,42.8014,5.9826,13.2980,4.59998,2453.537,38.4953
2024-02-01T04:30:49,2420,42.8014,5.9826,13.2982,4.59948,2453.559,38.4904
2024-02-01T04:33:49,2420,42.8014,5.9826,13.3027,4.59962,2453.537,38.4872
2024-02-01T04:36:49,2420,42.8014,5.9826,13.2983,4.59965,2453.537,38.4919
2024-02-01T04:39:49,2420,42.8014,5.9826,13.2984,4.59978,2453.559,38.4930
2024-02-01T04:42:49,2420,42.8014,5.9826,13.2982,4.60001,2453.537,38.4954
2024-02-01T04:45:49,2420,42.8014,5.9826,13.2993,4.59955,2453.559,38.4900
2024-02-01T04:48:49,2420,42.8014,5.9826,13.2988,4.59957,2453.537,38.4906
2024-02-01T04:51:49,2420,42.8014,5.9826,13.2984,4.59959,2453.537,38.4913
2024-02-01T04:54:49,2420,42.8014,5.9826,13.2985,4.59965,2453.559,38.4918
2024-02-01T04:57:49,2420,42.8014,5.9826,13.2985,4.59959,2453.537,38.4912
2024-02-01T05:00:49,2420,42.8014,5.9826,13.2983,4.59987,2453.582,38.4939
2024-02-01T05:03:49,2420,42.8014,5.9826,13.2985,4.59965,2453.551,38.4917
2024-02-01T05:06:49,2420,42.8014,5.9826,13.2984,4.59963,2453.551,38.4916
2024-02-01T05:09:49,2420,42.8014,5.9826,13.2986,4.59945,2453.551,38.4896
2024-02-01T05:12:49,2420,42.8014,5.9826,13.2987,4.59967,2453.537,38.4917
2024-02-01T05:15:49,2420,42.8014,5.9826,13.2982,4.59974,2453.559,38.4928
2024-02-01T05:18:49,2420,42.8014,5.9826,13.2979,4.59969,2453.477,38.4927
2024-02-01T05:21:49,2420,42.8014,5.9826,13.2979,4.59963,2453.559,38.4921
2024-02-01T05:24:49,2420,42.8014,5.9826,13.2982,4.59946,2453.559,38.4903
2024-02-01T05:27:49,2420,42.8014,5.9826,13.2981,4.59944,2453.559,38.4901
2024-02-01T05:30:49,2420,42.8014,5.9826,13.2986,4.59946,2453.537,38.4898
2024-02-01T05:33:49,2420,42.8014,5.9826,13.2980,4.59942,2453.544,38.4901
2024-02-01T05:36:49,2420,42.8014,5.9826,13.2983,4.59947,2453.559,38.4902
2024-02-01T05:39:49,2420,42.8014,5.9826,13.2981,4.59942,2453.559,38.4900
2024-02-01T05:42:49,2420,42.8014,5.9826,13.2983,4.59951,2453.559,38.4905
2024-02-01T05:45:49,2420,42.8014,5.9826,13.2983,4.59958,2453.544,38.4912
2024-02-01T05:48:49,2420,42.8014,5.9826,13.2983,4.59945,2453.544,38.4900
2024-02-01T05:51:49,2420,42.8014,5.9826,13.2980,4.59950,2453.537,38.4908
2024-02-01T05:54:49,2420,42.8014,5.9826,13.2979,4.59941,2453.559,38.4900
2024-02-01T05:57:49,2420,42.8014,5.9826,13.2982,4.59946,2453.582,38.4903
2024-02-01T06:00:49,2420,42.8014,5.9826,13.2982,4.59946,2453.537,38.4902
2024-02-01T06:03:50,2420,42.8014,5.9826,13.2981,4.59932,2453.551,38.4890
2024-02-01T06:06:49,2420,42.8014,5.9826,13.2982,4.59945,2453.537,38.4901
2024-02-01T06:09:49,2420,42.8014,5.9826,13.2981,4.59945,2453.544,38.4902
2024-02-01T06:12:49,2420,42.8014,5.9826,13.2981,4.59939,2453.537,38.4896
2024-02-01T06:15:49,2420,42.8014,5.9826,13.2981,4.59942,2453.582,38.4899
2024-02-01T06:18:49,2420,42.8014,5.9826,13.2978,4.59942,2453.596,38.4902
2024-02-01T06:21:49,2420,42.8014,5.9826,13.2981,4.59954,2453.559,38.4911
2024-02-01T06:24:49,2420,42.8014,5.9826,13.2982,4.59936,2453.582,38.4893
2024-02-01T06:27:49,2420,42.8014,5.9826,13.2982,4.59936,2453.582,38.4892
2024-02-01T06:30:49,2420,42.8014,5.9826,13.2981,4.59936,2453.559,38.4893
2024-02-01T06:33:49,2420,42.8014,5.9826,13.2986,4.59931,2453.567,38.4884
2024-02-01T06:36:49,2420,42.8014,5.9826,13.2982,4.59926,2453.567,38.4883
2024-02-01T06:39:49,2420,42.8014,5.9826,13.2981,4.59927,2453.559,38.4885
2024-02-01T06:42:49,2420,42.8014,5.9826,13.2982,4.59926,2453.582,38.4883
2024-02-01T06:45:49,2420,42.8014,5.9826,13.2982,4.59928,2453.537,38.4885
2024-02-01T06:48:49,2420,42.8014,5.9826,13.2983,4.59929,2453.582,38.4885
2024-02-01T06:51:49,2420,42.8014,5.9826,13.2983,4.59934,2453.582,38.4890
2024-02-01T06:54:49,2420,42.8014,5.9826,13.2979,4.59931,2453.559,38.4891
2024-02-01T06:57:49,2420,42.8014,5.9826,13.2984,4.59920,2453.537,38.4875
2024-02-01T07:00:50,2420,42.8014,5.9826,13.2982,4.59928,2453.559,38.4885
2024-02-01T07:03:49,2420,42.8014,5.9826,13.2980,4.59929,2453.582,38.4888
2024-02-01T07:06:49,2420,42.8014,5.9826,13.2980,4.59927,2453.582,38.4886
2024-02-01T07:09:49,2420,42.8014,5.9826,13.2979,4.59928,2453.582,38.4888
2024-02-01T07:12:49,2420,42.8014,5.9826,13.2978,4.59930,2453.574,38.4891
2024-02-01T07:15:49,2420,42.8014,5.9826,13.2979,4.59931,2453.582,38.4891
2024-02-01T07:18:49,2420,42.8014,5.9826,13.2979,4.59942,2453.559,38.4902
2024-02-01T07:21:49,2420,42.8014,5.9826,13.2980,4.59920,2453.582,38.4879
2024-02-01T07:24:49,2420,42.8014,5.9826,13.2980,4.59931,2453.627,38.4889
2024-02-01T07:27:49,2420,42.8014,5.9826,13.2980,4.59922,2453.559,38.4881
2024-02-01T07:30:49,2420,42.8014,5.9826,13.2975,4.59920,2453.604,38.4885
2024-02-01T07:33:49,2420,42.8014,5.9826,13.2982,4.59917,2453.582,38.4875
2024-02-01T07:36:49,2420,42.8014,5.9826,13.2978,4.59922,2453.582,38.4883
2024-02-01T07:39:49,2420,42.8014,5.9826,13.2978,4.59920,2453.604,38.4881
2024-02-01T07:42:49,2420,42.8014,5.9826,13.2975,4.59921,2453.582,38.4885
2024-02-01T07:45:49,2420,42.8014,5.9826,13.2979,4.59927,2453.582,38.4886
2024-02-01T07:48:49,2420,42.8014,5.9826,13.2978,4.59922,2453.590,38.4883
2024-02-01T07:51:49,2420,42.8014,5.9826,13.2975,4.59931,2453.582,38.4895
2024-02-01T07:54:49,2420,42.8014,5.9826,13.2978,4.59926,2453.604,38.4886
2024-02-01T07:57:49,2420,42.8014,5.9826,13.2976,4.59929,2453.627,38.4892
2024-02-01T08:00:49,2420,42.8014,5.9826,13.2981,4.59928,2453.582,38.4886
2024-02-01T08:03:49,2420,42.8014,5.9826,13.2993,4.59954,2453.635,38.4898
2024-02-01T08:06:49,2420,42.8014,5.9826,13.2981,4.60013,2453.627,38.4966
2024-02-01T08:09:49,2420,42.8014,5.9826,13.2980,4.59949,2453.604,38.4907
2024-02-01T08:12:49,2420,42.8014,5.9826,13.2985,4.59937,2453.612,38.4891
2024-02-01T08:15:49,2420,42.8014,5.9826,13.2995,4.59932,2453.604,38.4876
2024-02-01T08:18:50,2420,42.8014,5.9826,13.2986,4.59976,2453.641,38.4926
2024-02-01T08:21:49,2420,42.8014,5.9826,13.3010,4.59962,2453.649,38.4890
2024-02-01T08:24:49,2420,42.8014,5.9826,13.2984,4.59979,2453.641,38.4930
2024-02-01T08:27:49,2420,42.8014,5.9826,13.2996,4.60011,2453.627,38.4949
2024-02-01T08:30:49,2420,42.8014,5.9826,13.3008,4.60044,2453.649,38.4969
2024-02-01T08:33:49,2420,42.8014,5.9826,13.3003,4.60025,2453.672,38.4955
2024-02-01T08:36:49,2420,42.8014,5.9826,13.2990,4.59998,2453.627,38.4943
2024-02-01T08:39:49,2420,42.8014,5.9826,13.3006,4.60002,2453.627,38.4931
2024-02-01T08:42:49,2420,42.8014,5.9826,13.3006,4.60040,2453.649,38.4967
2024-02-01T08:45:49,2420,42.8014,5.9826,13.2975,4.59980,2453.672,38.4941
2024-02-01T08:48:49,2420,42.8014,5.9826,13.2982,4.60007,2453.649,38.4959
2024-02-01T08:51:49,2420,42.8014,5.9826,13.2981,4.59962,2453.687,38.4917
2024-02-01T08:54:49,2420,42.8014,5.9826,13.2979,4.59966,2453.695,38.4924
2024-02-01T08:57:49,2420,42.8014,5.9826,13.2978,4.59962,2453.657,38.4921
2024-02-01T09:00:49,2420,42.8014,5.9826,13.2975,4.59952,2453.672,38.4915
2024-02-01T09:03:49,2420,42.8014,5.9826,13.2978,4.59940,2453.649,38.4899
2024-02-01T09:06:49,2420,42.8014,5.9826,13.2985,4.59957,2453.695,38.4909
2024-02-01T09:09:49,2420,42.8014,5.9826,13.2983,4.59958,2453.649,38.4912
2024-02-01T09:12:49,2420,42.8014,5.9826,13.3029,4.59968,2453.687,38.4876
2024-02-01T09:15:49,2420,42.8014,5.9826,13.3001,4.59993,2453.672,38.4926
2024-02-01T09:18:49,2420,42.8014,5.9826,13.3002,4.59979,2453.695,38.4912
2024-02-01T09:21:49,2420,42.8014,5.9826,13.2990,4.59950,2453.695,38.4897
2024-02-01T09:24:49,2420,42.8014,5.9826,13.3000,4.60006,2453.709,38.4940
2024-02-01T09:27:49,2420,42.8014,5.9826,13.2982,4.59969,2453.672,38.4924
2024-02-01T09:30:50,2420,42.8014,5.9826,13.3008,4.59972,2453.672,38.4901
2024-02-01T09:33:49,2420,42.8014,5.9826,13.2990,4.59968,2453.695,38.4915
2024-02-01T09:36:49,2420,42.8014,5.9826,13.2991,4.59964,2453.695,38.4910
2024-02-01T09:39:49,2420,42.8014,5.9826,13.2984,4.59976,2453.672,38.4928
2024-02-01T09:42:49,2420,42.8014,5.9826,13.3027,4.59985,2453.672,38.4894
2024-02-01T09:45:49,2420,42.8014,5.9826,13.2991,4.60011,2453.672,38.4953
2024-02-01T09:48:49,2420,42.8014,5.9826,13.3002,4.59998,2453.695,38.4931
2024-02-01T09:51:49,2420,42.8014,5.9826,13.3005,4.60016,2453.695,38.4945
2024-02-01T09:54:49,2420,42.8014,5.9826,13.2994,4.59965,2453.717,38.4908
2024-02-01T09:57:49,2420,42.8014,5.9826,13.2982,4.59965,2453.702,38.4920
2024-02-01T10:00:50,2420,42.8014,5.9826,13.2980,4.59974,2453.717,38.4930
2024-02-01T10:03:49,2420,42.8014,5.9826,13.2978,4.59970,2453.740,38.4928
2024-02-01T10:06:49,2420,42.8014,5.9826,13.2979,4.59946,2453.717,38.4905
2024-02-01T10:09:49,2420,42.8014,5.9826,13.2975,4.59982,2453.717,38.4943
2024-02-01T10:12:49,2420,42.8014,5.9826,13.2978,4.59971,2453.717,38.4929
2024-02-01T10:15:49,2420,42.8014,5.9826,13.2981,4.60024,2453.695,38.4976
2024-02-01T10:18:49,2420,42.8014,5.9826,13.2989,4.60081,2453.702,38.5022
2024-02-01T10:21:49,2420,42.8014,5.9826,13.3032,4.59981,2453.695,38.4885
2024-02-01T10:24:49,2420,42.8014,5.9826,13.2984,4.59977,2453.717,38.4929
2024-02-01T10:27:49,2420,42.8014,5.9826,13.2988,4.60099,2453.717,38.5040
2024-02-01T10:30:50,2420,42.8014,5.9826,13.3029,4.60042,2453.702,38.4945
2024-02-01T10:33:49,2420,42.8014,5.9826,13.2999,4.60060,2453.717,38.4992
2024-02-01T10:36:49,2420,42.8014,5.9826,13.3008,4.60000,2453.695,38.4927
2024-02-01T10:39:49,2420,42.8014,5.9826,13.2977,4.59972,2453.695,38.4931
2024-02-01T10:42:49,2420,42.8014,5.9826,13.2973,4.59957,2453.740,38.4921
2024-02-01T10:45:49,2420,42.8014,5.9826,13.2979,4.59936,2453.717,38.4894
2024-02-01T10:48:49,2420,42.8014,5.9826,13.2974,4.59941,2453.717,38.4905
2024-02-01T10:51:49,2420,42.8014,5.9826,13.2974,4.59934,2453.717,38.4898
2024-02-01T10:54:49,2420,42.8014,5.9826,13.2975,4.59970,2453.717,38.4931
2024-02-01T10:57:49,2420,42.8014,5.9826,13.2988,4.59971,2453.687,38.4919
2024-02-01T11:00:49,2420,42.8014,5.9826,13.2983,4.59957,2453.680,38.4910
2024-02-01T11:03:49,2420,42.8014,5.9826,13.2975,4.59959,2453.717,38.4921
2024-02-01T11:06:49,2420,42.8014,5.9826,13.2977,4.59982,2453.717,38.4940
2024-02-01T11:09:49,2420,42.8014,5.9826,13.2975,4.59946,2453.695,38.4908
2024-02-01T11:12:49,2420,42.8014,5.9826,13.2977,4.59989,2453.695,38.4947
2024-02-01T11:15:49,2420,42.8014,5.9826,13.2980,4.59951,2453.695,38.4908
2024-02-01T11:18:49,2420,42.8014,5.9826,13.2977,4.59938,2453.695,38.4899
2024-02-01T11:21:49,2420,42.8014,5.9826,13.2974,4.59958,2453.695,38.4921
2024-02-01T11:24:49,2420,42.8014,5.9826,13.2978,4.59970,2453.717,38.4928
2024-02-01T11:27:49,2420,42.8014,5.9826,13.2978,4.60044,2453.657,38.4999
2024-02-01T11:30:49,2420,42.8014,5.9826,13.2975,4.59965,2453.717,38.4927
2024-02-01T11:33:49,2420,42.8014,5.9826,13.2975,4.59940,2453.717,38.4902
2024-02-01T11:36:49,2420,42.8014,5.9826,13.2976,4.59969,2453.717,38.4929
2024-02-01T11:39:49,2420,42.8014,5.9826,13.2985,4.59977,2453.695,38.4927
2024-02-01T11:42:49,2420,42.8014,5.9826,13.2979,4.59957,2453.740,38.4915
2024-02-01T11:45:49,2420,42.8014,5.9826,13.2975,4.59936,2453.695,38.4899
2024-02-01T11:48:49,2420,42.8014,5.9826,13.2973,4.59940,2453.695,38.4905
2024-02-01T11:51:49,2420,42.8014,5.9826,13.2977,4.59940,2453.672,38.4901
2024-02-01T11:54:49,2420,42.8014,5.9826,13.2975,4.59940,2453.695,38.4903
2024-02-01T11:57:49,2420,42.8014,5.9826,13.2976,4.59943,2453.680,38.4904
2024-02-01T12:00:49,2420,42.8014,5.9826,13.2970,4.59934,2453.672,38.4901
2024-02-01T12:03:49,2420,42.8014,5.9826,13.2973,4.59941,2453.672,38.4905
2024-02-01T12:06:49,2420,42.8014,5.9826,13.2975,4.59942,2453.695,38.4904
2024-02-01T12:09:49,2420,42.8014,5.9826,13.2975,4.59943,2453.672,38.4906
2024-02-01T12:12:49,2420,42.8014,5.9826,13.2977,4.59945,2453.672,38.4906
2024-02-01T12:15:49,2420,42.8014,5.9826,13.2998,4.59943,2453.695,38.4883
2024-02-01T12:18:49,2420,42.8014,5.9826,13.2978,4.59940,2453.695,38.4900
2024-02-01T12:21:49,2420,42.8014,5.9826,13.2978,4.59934,2453.672,38.4895
2024-02-01T12:24:49,2420,42.8014,5.9826,13.2973,4.59941,2453.695,38.4905
2024-02-01T12:27:49,2420,42.8014,5.9826,13.2975,4.59931,2453.695,38.4894
2024-02-01T12:30:49,2420,42.8014,5.9826,13.2975,4.59940,2453.695,38.4903
2024-02-01T12:33:49,2420,42.8014,5.9826,13.2973,4.59946,2453.649,38.4910
2024-02-01T12:36:49,2420,42.8014,5.9826,13.3173,4.59938,2453.672,38.4705
2024-02-01T12:39:49,2420,42.8014,5.9826,13.2973,4.59935,2453.672,38.4900
2024-02-01T12:42:49,2420,42.8014,5.9826,13.2978,4.59945,2453.672,38.4905
2024-02-01T12:45:49,2420,42.8014,5.9826,13.2975,4.59950,2453.657,38.4912
2024-02-01T12:48:49,2420,42.8014,5.9826,13.2984,4.60011,2453.649,38.4961
2024-02-01T12:51:49,2420,42.8014,5.9826,13.2979,4.59970,2453.672,38.4927
2024-02-01T12:54:49,2420,42.8014,5.9826,13.2980,4.60061,2453.649,38.5012
2024-02-01T12:57:49,2420,42.8014,5.9826,13.2975,4.60012,2453.687,38.4971
2024-02-01T13:00:50,2420,42.8014,5.9826,13.2976,4.59953,2453.680,38.4914
2024-02-01T13:03:49,2420,42.8014,5.9826,13.2977,4.60006,2453.672,38.4964
2024-02-01T13:06:49,2420,42.8014,5.9826,13.2977,4.60005,2453.657,38.4963
2024-02-01T13:09:49,2420,42.8014,5.9826,13.2984,4.59985,2453.649,38.4937
2024-02-01T13:12:49,2420,42.8014,5.9826,13.2975,4.59987,2453.649,38.4947
2024-02-01T13:15:49,2420,42.8014,5.9826,13.2977,4.59974,2453.641,38.4934
2024-02-01T13:18:49,2420,42.8014,5.9826,13.2974,4.59977,2453.649,38.4939
2024-02-01T13:21:49,2420,42.8014,5.9826,13.2975,4.59962,2453.627,38.4923
2024-02-01T13:24:49,2420,42.8014,5.9826,13.2979,4.60067,2453.641,38.5019
2024-02-01T13:27:49,2420,42.8014,5.9826,13.2976,4.60053,2453.612,38.5009
2024-02-01T13:30:49,2420,42.8014,5.9826,13.2977,4.60193,2453.627,38.5140
2024-02-01T13:33:49,2420,42.8014,5.9826,13.3002,4.60013,2453.627,38.4945
2024-02-01T13:36:49,2420,42.8014,5.9826,13.3009,4.60106,2453.627,38.5026
2024-02-01T13:39:49,2420,42.8014,5.9826,13.3000,4.60002,2453.627,38.4937
2024-02-01T13:42:49,2420,42.8014,5.9826,13.2979,4.60109,2453.627,38.5059
2024-02-01T13:45:49,2420,42.8014,5.9826,13.2982,4.59979,2453.627,38.4934
2024-02-01T13:48:50,2420,42.8014,5.9826,13.2973,4.60013,2453.627,38.4974
2024-02-01T13:51:49,2420,42.8014,5.9826,13.3537,4.60052,2453.604,38.4452
2024-02-01T13:54:49,2420,42.8014,5.9826,13.2974,4.60054,2453.627,38.5012
2024-02-01T13:57:49,2420,42.8014,5.9826,13.2979,4.60077,2453.604,38.5028
2024-02-01T14:00:49,2420,42.8014,5.9826,13.2978,4.60016,2453.612,38.4973
2024-02-01T14:03:49,2420,42.8014,5.9826,13.3004,4.59985,2453.641,38.4916
2024-02-01T14:06:49,2420,42.8014,5.9826,13.2977,4.59996,2453.627,38.4954
2024-02-01T14:09:49,2420,42.8014,5.9826,13.2979,4.60096,2453.627,38.5047
2024-02-01T14:12:49,2420,42.8014,5.9826,13.2979,4.59959,2453.604,38.4917
2024-02-01T14:15:49,2420,42.8014,5.9826,13.2979,4.59984,2453.627,38.4940
2024-02-01T14:18:49,2420,42.8014,5.9826,13.2978,4.60055,2453.582,38.5009
2024-02-01T14:21:49,2420,42.8014,5.9826,13.2978,4.60047,2453.627,38.5001
2024-02-01T14:24:49,2420,42.8014,5.9826,13.2976,4.60108,2453.627,38.5061
2024-02-01T14:27:49,2420,42.8014,5.9826,13.2978,4.60037,2453.604,38.4992
2024-02-01T14:30:49,2420,42.8014,5.9826,13.3291,4.59993,2453.604,38.4640
2024-02-01T14:33:49,2420,42.8014,5.9826,13.2975,4.60076,2453.627,38.5031
2024-02-01T14:36:49,2420,42.8014,5.9826,13.2981,4.60074,2453.590,38.5024
2024-02-01T14:39:49,2420,42.8014,5.9826,13.2977,4.60062,2453.582,38.5017
2024-02-01T14:42:49,2420,42.8014,5.9826,13.2982,4.60139,2453.559,38.5084
2024-02-01T14:45:49,2420,42.8014,5.9826,13.2980,4.59968,2453.582,38.4925
2024-02-01T14:48:49,2420,42.8014,5.9826,13.2978,4.59974,2453.582,38.4933
2024-02-01T14:51:49,2420,42.8014,5.9826,13.2982,4.59949,2453.604,38.4905
2024-02-01T14:54:49,2420,42.8014,5.9826,13.2975,4.59951,2453.559,38.4913
2024-02-01T14:57:49,2420,42.8014,5.9826,13.2976,4.59962,2453.582,38.4923
2024-02-01T15:00:49,2420,42.8014,5.9826,13.2975,4.59953,2453.596,38.4915
2024-02-01T15:03:49,2420,42.8014,5.9826,13.2975,4.59957,2453.596,38.4919
2024-02-01T15:06:49,2420,42.8014,5.9826,13.2975,4.59964,2453.604,38.4926
2024-02-01T15:09:49,2420,42.8014,5.9826,13.2975,4.59955,2453.559,38.4917
2024-02-01T15:12:49,2420,42.8014,5.9826,13.2976,4.59977,2453.582,38.4937
2024-02-01T15:15:49,2420,42.8014,5.9826,13.2979,4.59971,2453.559,38.4929
2024-02-01T15:18:49,2420,42.8014,5.9826,13.2976,4.60056,2453.604,38.5012
2024-02-01T15:21:49,2420,42.8014,5.9826,13.2978,4.59986,2453.604,38.4943
2024-02-01T15:24:49,2420,42.8014,5.9826,13.2983,4.60021,2453.582,38.4972
2024-02-01T15:27:49,2420,42.8014,5.9826,13.2980,4.59999,2453.582,38.4954
2024-02-01T15:30:49,2420,42.8014,5.9826,13.2989,4.60002,2453.604,38.4947
2024-02-01T15:33:49,2420,42.8014,5.9826,13.2980,4.59997,2453.582,38.4952
2024-02-01T15:36:49,2420,42.8014,5.9826,13.3029,4.59966,2453.596,38.4874
2024-02-01T15:39:49,2420,42.8014,5.9826,13.2996,4.59982,2453.559,38.4922
2024-02-01T15:42:49,2420,42.8014,5.9826,13.2975,4.59979,2453.582,38.4940
2024-02-01T15:45:49,2420,42.8014,5.9826,13.2979,4.60020,2453.559,38.4975
2024-02-01T15:48:49,2420,42.8014,5.9826,13.2975,4.59963,2453.574,38.4925
2024-02-01T15:51:49,2420,42.8014,5.9826,13.2975,4.59983,2453.604,38.4944
2024-02-01T15:54:49,2420,42.8014,5.9826,13.2976,4.59970,2453.582,38.4930
2024-02-01T15:57:49,2420,42.8014,5.9826,13.2978,4.59949,2453.582,38.4909
2024-02-01T16:00:49,2420,42.8014,5.9826,13.2974,4.59958,2453.582,38.4921
2024-02-01T16:03:49,2420,42.8014,5.9826,13.2973,4.59942,2453.559,38.4907